Location: Unspecified
(49.2170°N, 0.0000°E)
Time: 16:34:23
(UTC+00:00)

A-11 Canister half - Pass Details

Date: 23 January 2021
Orbit: 1516 x 1684 km, 47.2° (Epoch: 05 March)

Event Time Altitude Azimuth Distance (km) Brightness Sun altitude
Exits shadow 04:14:41 13° 186° (S) 3,479 10.7 -33.6°
Drops below altitude 10° 04:15:47 10° 181° (S) 3,723 10.9 -33.4°
Sets 04:19:42 0° 167° (SSE) 4,728 11.6 -32.8°
